SCP
-0 -0 -0 -0 -0 -0 0 -0 -0 -0 0 -0 0 -0 -0 -0 -0 0 -0 0 0 0
-0 -0 -0 -0 -0 -0 -0 0 -0 -0 -0 -0 -0 -0 -0 0 0 -0 0 0 0 0
-0 -0 -0 0 -0 -0 -0 -0 0 -0 -0 -0 -0 -0 -0 0 0 0 0 0 0 0
0 -0 0 -0 -0 -0 -0 -0 -0 -0 -0 -0 -0 -0 -0 -0 0 0 0 0 0 0
1 0 0 -0 -0 -0 -0 -0 -0 0 -0 -0 0 0 -0 -0 0 0 0 0 0 -0
0 0 0 -0 0 0 0 -0 -0 0 0 0 0 0 0 0 -0 0 0 0 0 0
1 0 0 0 0 0 0 0 0 0 0 0 0 0 0 0 0 0 0 0 0 0
1 1 1 1 1 1 0 0 0 0 0 0 0 0 0 0 0 -0 0 0 0 0
2 2 2 2 1 1 1 1 1 0 0 0 0 0 0 -0 -0 -0 0 0 0 -0
2 2 2 2 2 1 1 1 1 0 0 0 0 0 -0 -0 -0 0 0 -0 -0 -0
2 2 2 2 2 2 1 1 1 0 0 0 0 0 -0 -0 -0 0 -0 0 -0 -0
2 2 2 2 2 2 1 1 1 0 0 0 0 0 -0 -0 0 0 0 0 -0 -0
2 2 2 3 2 2 2 1 1 0 0 -0 -0 -0 -0 -0 0 -0 0 -0 -0 -0
2 2 2 3 3 2 2 1 1 1 1 -0 -0 -0 -0 -0 0 0 0 -0 -0 -0
Wind_Speed_500mb
74 59 55 48 39 36 34 32 30 32 31 28 25 22 22 17 16 17 14 22 20 15
80 75 56 54 49 44 39 33 34 35 35 34 30 29 26 20 20 21 17 18 20 18
86 83 77 61 60 50 42 45 39 36 37 37 35 36 34 26 23 22 19 19 23 21
82 82 82 74 70 64 56 53 45 42 38 39 37 37 41 37 29 27 24 25 26 26
86 85 73 81 75 69 62 58 51 48 44 44 43 40 42 42 33 34 32 30 31 29
88 83 81 83 78 73 66 60 57 56 53 50 49 46 46 47 42 39 36 34 35 33
96 94 90 89 83 77 69 64 63 63 59 56 53 50 48 47 51 49 42 40 39 38
95 94 92 89 84 77 73 68 65 65 65 61 58 52 54 52 50 52 50 47 45 46
96 96 94 91 87 83 77 71 68 69 70 68 62 57 62 60 53 53 52 54 54 56
98 98 94 89 87 87 82 75 73 74 72 73 70 66 64 63 65 55 58 61 59 56
93 94 92 90 88 86 82 80 78 77 76 75 74 71 69 66 66 71 74 70 66 71
91 90 90 89 89 86 82 80 81 79 78 78 78 75 71 69 71 76 80 80 81 82
90 86 87 86 84 82 79 77 74 73 76 78 77 75 71 68 69 73 75 78 82 85
81 83 79 78 75 75 74 68 73 71 72 73 75 74 72 69 71 72 62 61 59 57
Wind_Direction_500mb
219 216 218 223 215 222 221 225 223 233 232 239 241 240 237 225 214 220 211 217 215 225
219 217 219 219 231 225 226 226 230 230 231 233 237 232 230 219 226 216 230 229 230 221
219 221 223 227 230 230 227 235 228 238 231 232 230 228 229 227 235 224 224 220 230 222
218 222 226 228 235 236 235 236 236 242 238 227 224 227 232 228 222 236 231 226 231 236
218 220 221 228 232 235 234 233 234 238 237 232 228 228 233 235 230 235 236 236 237 239
216 218 220 226 228 232 233 233 233 235 237 235 232 231 235 239 237 235 237 235 236 239
216 217 219 222 225 229 232 234 234 234 236 237 236 233 234 237 242 242 240 238 237 238
214 216 219 222 224 227 230 233 234 236 237 239 238 234 237 236 238 241 242 241 244 245
215 217 220 224 227 229 230 233 234 233 234 236 237 236 237 240 240 241 242 244 248 249
217 217 220 223 226 229 229 230 230 231 232 236 239 241 243 243 244 242 246 248 249 249
219 219 218 220 223 226 226 227 228 230 233 237 240 242 244 245 246 248 247 247 251 256
219 219 219 219 220 221 222 223 227 230 233 236 240 242 243 244 245 248 249 251 253 256
217 217 217 218 218 218 220 222 224 229 233 237 240 242 243 244 244 247 250 254 255 256
214 218 219 217 215 217 219 219 225 228 233 237 240 241 242 240 240 241 244 246 250 255
Wind_Speed_850mb
74 59 55 48 39 36 34 32 30 32 31 28 25 22 22 17 16 17 14 22 20 15
80 75 56 54 49 44 39 33 34 35 35 34 30 29 26 20 20 21 17 18 20 18
86 83 77 61 60 50 42 45 39 36 37 37 35 36 34 26 23 22 19 19 23 21
82 82 82 74 70 64 56 53 45 42 38 39 37 37 41 37 29 27 24 25 26 26
86 85 73 81 75 69 62 58 51 48 44 44 43 40 42 42 33 34 32 30 31 29
88 83 81 83 78 73 66 60 57 56 53 50 49 46 46 47 42 39 36 34 35 33
96 94 90 89 83 77 69 64 63 63 59 56 53 50 48 47 51 49 42 40 39 38
95 94 92 89 84 77 73 68 65 65 65 61 58 52 54 52 50 52 50 47 45 46
96 96 94 91 87 83 77 71 68 69 70 68 62 57 62 60 53 53 52 54 54 56
98 98 94 89 87 87 82 75 73 74 72 73 70 66 64 63 65 55 58 61 59 56
93 94 92 90 88 86 82 80 78 77 76 75 74 71 69 66 66 71 74 70 66 71
91 90 90 89 89 86 82 80 81 79 78 78 78 75 71 69 71 76 80 80 81 82
90 86 87 86 84 82 79 77 74 73 76 78 77 75 71 68 69 73 75 78 82 85
81 83 79 78 75 75 74 68 73 71 72 73 75 74 72 69 71 72 62 61 59 57
Wind_Direction_850mb
219 216 218 223 215 222 221 225 223 233 232 239 241 240 237 225 214 220 211 217 215 225
219 217 219 219 231 225 226 226 230 230 231 233 237 232 230 219 226 216 230 229 230 221
219 221 223 227 230 230 227 235 228 238 231 232 230 228 229 227 235 224 224 220 230 222
218 222 226 228 235 236 235 236 236 242 238 227 224 227 232 228 222 236 231 226 231 236
218 220 221 228 232 235 234 233 234 238 237 232 228 228 233 235 230 235 236 236 237 239
216 218 220 226 228 232 233 233 233 235 237 235 232 231 235 239 237 235 237 235 236 239
216 217 219 222 225 229 232 234 234 234 236 237 236 233 234 237 242 242 240 238 237 238
214 216 219 222 224 227 230 233 234 236 237 239 238 234 237 236 238 241 242 241 244 245
215 217 220 224 227 229 230 233 234 233 234 236 237 236 237 240 240 241 242 244 248 249
217 217 220 223 226 229 229 230 230 231 232 236 239 241 243 243 244 242 246 248 249 249
219 219 218 220 223 226 226 227 228 230 233 237 240 242 244 245 246 248 247 247 251 256
219 219 219 219 220 221 222 223 227 230 233 236 240 242 243 244 245 248 249 251 253 256
217 217 217 218 218 218 220 222 224 229 233 237 240 242 243 244 244 247 250 254 255 256
214 218 219 217 215 217 219 219 225 228 233 237 240 241 242 240 240 241 244 246 250 255